Flag for U.S.A. Weather past 2 weeks in Norfolk, Virginia, U.S.A.

Now
50 °F

Passing clouds.


Feels Like: 45 °F
Forecast: 49 / 67 °F
Wind: 15 mph from Northwest

Location: Norfolk Naval Air Station

Current Time: Apr 28, 2015 at 6:57:06 AM

Latest Report: Apr 28, 2015 at 5:59 AM


Visibility: 10 mi

Pressure: 29.89 "Hg

Humidity: 59%

Dew point: 36 °F

Location of NorfolkLocation

Historic Weather in Norfolk — Graph

°F

Norfolk temperature yesterday

Maximum temperature yesterday: 64 °F (at 2:59 PM)
Minimum temperature yesterday: 47 °F (at 2:59 AM)
Average temperature yesterday: 57 °F

Past Weeks' High & Low Weather Summary

 TemperatureHumidityPressure
High83 °F (Apr 20, 3:59 PM)86% (Apr 14, 7:59 PM)30.41 "Hg (Apr 14, 7:59 PM)
Low47 °F (Apr 27, 2:59 AM)20% (Apr 24, 5:59 PM)29.63 "Hg (Apr 26, 7:59 AM)
Average64 °F59%29.96 "Hg
* Reported Apr 13 4:59 AM — Apr 28 4:59 AM, Norfolk, Weather by CustomWeather, © 2015

Note: Actual official high and low records may vary slightly from our data, if they occured in-between our weather recording intervals... More about our weather records

Advertising

Norfolk weather history for previous 24 hours

 ConditionsComfort  
Time TempWeatherWind HumidityBarometerVisibility
4:59 AM
Tue, Apr 28
52 °FClear.15 mph55%29.88 "Hg10 mi
3:59 AM53 °FClear.16 mph55%29.87 "Hg10 mi
2:59 AM54 °FClear.21 mph55%29.86 "Hg10 mi
1:59 AM55 °FClear.20 mph51%29.88 "Hg10 mi
12:59 AM56 °FClear.15 mph49%29.89 "Hg10 mi
11:59 PM
Mon, Apr 27
55 °FClear.7 mph51%29.89 "Hg10 mi
10:59 PM58 °FClear.8 mph44%29.87 "Hg10 mi
9:59 PM59 °FPassing clouds.10 mph41%29.87 "Hg10 mi
8:59 PM61 °FPartly cloudy.12 mph39%29.85 "Hg10 mi
7:59 PM61 °FPartly sunny.8 mph46%29.83 "Hg10 mi
6:59 PM61 °FMore clouds than sun.8 mph46%29.80 "Hg10 mi
5:59 PM62 °FPartly sunny.6 mph44%29.80 "Hg10 mi
4:59 PM63 °FPartly sunny.8 mph43%29.78 "Hg10 mi
3:59 PM64 °FScattered clouds.12 mph40%29.75 "Hg10 mi
2:59 PM64 °FScattered clouds.8 mph40%29.76 "Hg10 mi
1:59 PM63 °FScattered clouds.10 mph45%29.79 "Hg10 mi
12:59 PM63 °FScattered clouds.12 mph41%29.80 "Hg10 mi
11:59 AM63 °FScattered clouds.14 mph41%29.81 "Hg10 mi
10:59 AM63 °FScattered clouds.9 mph54%29.79 "Hg10 mi
9:59 AM59 °FScattered clouds.7 mph64%29.78 "Hg10 mi
8:59 AM56 °FPassing clouds.8 mph70%29.77 "Hg10 mi
7:59 AM54 °FPassing clouds.6 mph74%29.76 "Hg10 mi
6:59 AM50 °FClear.3 mph77%29.75 "Hg10 mi
Weather by CustomWeather, © 2015

See weather overviewHow to use our weather pages